| time (UTC) | temp F | wind direction | speed MPH | gust MPH | rain 1hr in | rain 24hr in | rain mn in | humidity % | barometer mb |
| 20260901040913 | 55 | 143 | 0.0 | 0.0 | 0.00 | 0.00 | 0.00 | 10 | 1016.6 |
| 20260901040408 | 55 | 39 | 0.0 | 0.0 | 0.00 | 0.00 | 0.00 | 10 | 1016.5 |
| 20260901035902 | 56 | 54 | 0.0 | 0.0 | 0.00 | 0.00 | 0.00 | 10 | 1016.5 |
| 20260901035401 | 55 | 54 | 0.0 | 0.0 | 0.00 | 0.00 | 0.00 | 10 | 1016.4 |
| 20260901034859 | 55 | 54 | 0.0 | 0.0 | 0.00 | 0.00 | 0.00 | 10 | 1016.4 |
| 20260901034354 | 56 | 54 | 0.0 | 0.0 | 0.00 | 0.00 | 0.00 | 10 | 1016.4 |
| 20260901033849 | 56 | 61 | 0.0 | 0.0 | 0.00 | 0.00 | 0.00 | 10 | 1016.1 |
| 20260901033348 | 57 | 66 | 0.0 | 0.0 | 0.00 | 0.00 | 0.00 | 10 | 1016.2 |
| 20260901032847 | 56 | 77 | 0.0 | 0.0 | 0.00 | 0.00 | 0.00 | 10 | 1016.1 |
| 20260901032346 | 56 | 64 | 0.0 | 0.0 | 0.00 | 0.00 | 0.00 | 10 | 1015.8 |
| 20260901031842 | 57 | 68 | 0.0 | 0.0 | 0.00 | 0.00 | 0.00 | 10 | 1016.2 |
| 20260901031338 | 57 | 80 | 0.0 | 0.0 | 0.00 | 0.00 | 0.00 | 10 | 1016.1 |
| 20260901030837 | 57 | 61 | 0.0 | 0.0 | 0.00 | 0.00 | 0.00 | 10 | 1015.8 |
| 20260901030333 | 58 | 51 | 0.0 | 0.0 | 0.00 | 0.00 | 0.00 | 10 | 1015.9 |
| 20260901025831 | 59 | 42 | 0.0 | 0.0 | 0.00 | 0.00 | 0.00 | 10 | 1015.8 |
| 20260901025326 | 60 | 30 | 0.0 | 0.0 | 0.00 | 0.00 | 0.00 | 10 | 1015.9 |
| 20260901024821 | 61 | 84 | 0.0 | 0.0 | 0.00 | 0.00 | 0.00 | 10 | 1015.8 |
| 20260901024321 | 64 | 105 | 0.0 | 0.0 | 0.00 | 0.00 | 0.00 | 10 | 1015.9 |
| 20260901023819 | 63 | 187 | 0.0 | 0.0 | 0.00 | 0.00 | 0.00 | 10 | 1015.8 |
| 20260901023314 | 62 | 188 | 0.0 | 0.0 | 0.00 | 0.00 | 0.00 | 10 | 1015.7 |
| 20260901022809 | 65 | 134 | 0.0 | 1.0 | 0.00 | 0.00 | 0.00 | 10 | 1015.5 |
| 20260901022306 | 65 | 178 | 0.0 | 1.0 | 0.00 | 0.00 | 0.00 | 10 | 1015.8 |
| 20260901021800 | 65 | 187 | 0.0 | 1.0 | 0.00 | 0.00 | 0.00 | 10 | 1015.6 |
| 20260901021256 | 67 | 105 | 0.0 | 0.0 | 0.00 | 0.00 | 0.00 | 10 | 1015.8 |
| 20260901020750 | 67 | 177 | 0.0 | 0.0 | 0.00 | 0.00 | 0.00 | 10 | 1015.7 |
| 20260901020246 | 67 | 183 | 0.0 | 0.0 | 0.00 | 0.00 | 0.00 | 10 | 1015.8 |
| 20260901015741 | 68 | 201 | 0.0 | 0.0 | 0.00 | 0.00 | 0.00 | 10 | 1015.8 |
| 20260901015237 | 69 | 194 | 0.0 | 0.0 | 0.00 | 0.00 | 0.00 | 10 | 1015.6 |
| 20260901014736 | 70 | 197 | 0.0 | 0.0 | 0.00 | 0.00 | 0.00 | 10 | 1015.8 |
| 20260901014232 | 71 | 209 | 0.0 | 0.0 | 0.00 | 0.00 | 0.00 | 10 | 1015.6 |
| 20260901013727 | 73 | 181 | 0.0 | 0.0 | 0.00 | 0.00 | 0.00 | 10 | 1015.4 |
| 20260901013223 | 73 | 245 | 0.0 | 0.0 | 0.00 | 0.00 | 0.00 | 10 | 1015.5 |
| 20260901012718 | 73 | 265 | 0.0 | 0.0 | 0.00 | 0.00 | 0.00 | 10 | 1015.5 |
| 20260901012218 | 74 | 252 | 0.0 | 0.0 | 0.00 | 0.00 | 0.00 | 10 | 1015.9 |
| 20260901011714 | 74 | 11 | 0.0 | 0.0 | 0.00 | 0.00 | 0.00 | 10 | 1015.7 |
| 20260901011214 | 74 | 244 | 0.0 | 0.0 | 0.00 | 0.00 | 0.00 | 10 | 1015.9 |
| 20260901010708 | 74 | 30 | 0.0 | 0.0 | 0.00 | 0.00 | 0.00 | 10 | 1015.8 |
| 20260901010203 | 74 | 353 | 0.0 | 0.0 | 0.00 | 0.00 | 0.00 | 10 | 1016.1 |
| 20260901005702 | 74 | 302 | 0.0 | 0.0 | 0.00 | 0.00 | 0.00 | 10 | 1015.9 |
| 20260901005157 | 75 | 330 | 0.0 | 0.0 | 0.00 | 0.00 | 0.00 | 10 | 1016.1 |
| 20260901004657 | 75 | 352 | 0.0 | 0.0 | 0.00 | 0.00 | 0.00 | 10 | 1015.9 |
| 20260901004151 | 75 | 277 | 0.0 | 0.0 | 0.00 | 0.00 | 0.00 | 10 | 1015.9 |
| 20260901003646 | 75 | 235 | 0.0 | 0.0 | 0.00 | 0.00 | 0.00 | 10 | 1016.1 |
| 20260901003146 | 75 | 348 | 0.0 | 0.0 | 0.00 | 0.00 | 0.00 | 10 | 1016.1 |
| 20260901002639 | 75 | 92 | 0.0 | 0.0 | 0.00 | 0.00 | 0.00 | 10 | 1016.1 |
| 20260901002134 | 75 | 2 | 0.0 | 0.0 | 0.00 | 0.00 | 0.00 | 10 | 1015.9 |
| 20260901001630 | 75 | 310 | 0.0 | 0.0 | 0.00 | 0.00 | 0.00 | 10 | 1016.1 |
| 20260901001124 | 76 | 49 | 0.0 | 0.0 | 0.00 | 0.00 | 0.00 | 10 | 1016.2 |
| 20260901000619 | 75 | 244 | 0.0 | 0.0 | 0.00 | 0.00 | 0.00 | 10 | 1016.2 |
| 20260901000110 | 74 | 346 | 0.0 | 0.0 | 0.00 | 0.00 | 0.00 | 10 | 1016.2 |
| 20260831235603 | 74 | 311 | 0.0 | 0.0 | 0.00 | 0.00 | 0.00 | 10 | 1016.1 |
| 20260831235058 | 74 | 294 | 0.0 | 0.0 | 0.00 | 0.00 | 0.00 | 10 | 1016.1 |
| 20260831234552 | 75 | 259 | 0.0 | 0.0 | 0.00 | 0.00 | 0.00 | 10 | 1015.9 |
| 20260831234048 | 74 | 35 | 0.0 | 0.0 | 0.00 | 0.00 | 0.00 | 10 | 1016.1 |
| 20260831233543 | 75 | 17 | 0.0 | 0.0 | 0.00 | 0.00 | 0.00 | 10 | 1016.3 |
| 20260831233039 | 75 | 334 | 0.0 | 1.0 | 0.00 | 0.00 | 0.00 | 10 | 1016.1 |
| 20260831232534 | 75 | 293 | 0.0 | 1.0 | 0.00 | 0.00 | 0.00 | 10 | 1016.2 |
| 20260831232030 | 75 | 245 | 0.0 | 0.0 | 0.00 | 0.00 | 0.00 | 10 | 1016.3 |
| 20260831231526 | 76 | 146 | 0.0 | 0.0 | 0.00 | 0.00 | 0.00 | 10 | 1016.2 |
| 20260831231021 | 75 | 232 | 0.0 | 0.0 | 0.00 | 0.00 | 0.00 | 10 | 1016.4 |
| 20260831230516 | 75 | 237 | 0.0 | 0.0 | 0.00 | 0.00 | 0.00 | 10 | 1016.4 |
| 20260831230011 | 74 | 10 | 0.0 | 0.0 | 0.00 | 0.00 | 0.00 | 10 | 1016.4 |
| 20260831225507 | 74 | 333 | 0.0 | 1.0 | 0.00 | 0.00 | 0.00 | 10 | 1016.1 |
| 20260831225006 | 74 | 317 | 0.0 | 1.0 | 0.00 | 0.00 | 0.00 | 10 | 1016.4 |
| 20260831224501 | 74 | 138 | 0.0 | 0.0 | 0.00 | 0.00 | 0.00 | 10 | 1016.3 |
| 20260831223956 | 74 | 246 | 0.0 | 0.0 | 0.00 | 0.00 | 0.00 | 10 | 1016.4 |
| 20260831223452 | 74 | 236 | 0.0 | 0.0 | 0.00 | 0.00 | 0.00 | 10 | 1016.2 |
| 20260831222948 | 74 | 52 | 0.0 | 0.0 | 0.00 | 0.00 | 0.00 | 10 | 1016.2 |
| 20260831222444 | 74 | 324 | 0.0 | 0.0 | 0.00 | 0.00 | 0.00 | 10 | 1016.3 |
| 20260831221943 | 73 | 46 | 0.0 | 0.0 | 0.00 | 0.00 | 0.00 | 10 | 1016.4 |
| 20260831221439 | 74 | 312 | 0.0 | 0.0 | 0.00 | 0.00 | 0.00 | 10 | 1016.4 |
| 20260831220935 | 74 | 314 | 0.0 | 3.0 | 0.00 | 0.00 | 0.00 | 10 | 1016.4 |
| 20260831220430 | 74 | 305 | 0.0 | 0.0 | 0.00 | 0.00 | 0.00 | 10 | 1016.5 |
| 20260831215925 | 75 | 291 | 0.0 | 1.0 | 0.00 | 0.00 | 0.00 | 10 | 1016.4 |
| 20260831215421 | 74 | 242 | 0.0 | 0.0 | 0.00 | 0.00 | 0.00 | 10 | 1016.7 |
| 20260831214917 | 74 | 225 | 0.0 | 1.0 | 0.00 | 0.00 | 0.00 | 10 | 1016.7 |
| 20260831214414 | 73 | 291 | 0.0 | 2.0 | 0.00 | 0.00 | 0.00 | 10 | 1016.6 |
| 20260831213909 | 73 | 328 | 0.0 | 1.0 | 0.00 | 0.00 | 0.00 | 10 | 1016.7 |
| 20260831213406 | 72 | 6 | 0.0 | 0.0 | 0.00 | 0.00 | 0.00 | 10 | 1016.9 |
| 20260831212901 | 72 | 330 | 0.0 | 1.0 | 0.00 | 0.00 | 0.00 | 10 | 1016.9 |
| 20260831212357 | 72 | 277 | 0.0 | 0.0 | 0.00 | 0.00 | 0.00 | 10 | 1016.6 |
| 20260831211856 | 72 | 268 | 0.0 | 0.0 | 0.00 | 0.00 | 0.00 | 10 | 1016.9 |
| 20260831211356 | 73 | 276 | 0.0 | 0.0 | 0.00 | 0.00 | 0.00 | 10 | 1016.9 |
| 20260831210856 | 72 | 316 | 0.0 | 1.0 | 0.00 | 0.00 | 0.00 | 10 | 1016.7 |
| 20260831210351 | 72 | 32 | 0.0 | 0.0 | 0.00 | 0.00 | 0.00 | 10 | 1016.8 |
| 20260831205847 | 72 | 283 | 0.0 | 1.0 | 0.00 | 0.00 | 0.00 | 10 | 1016.9 |
| 20260831205343 | 72 | 312 | 0.0 | 0.0 | 0.00 | 0.00 | 0.00 | 10 | 1017.0 |
| 20260831204837 | 72 | 295 | 0.0 | 0.0 | 0.00 | 0.00 | 0.00 | 10 | 1016.9 |
| 20260831204336 | 72 | 296 | 0.0 | 1.0 | 0.00 | 0.00 | 0.00 | 10 | 1016.9 |
| 20260831203836 | 72 | 302 | 0.0 | 0.0 | 0.00 | 0.00 | 0.00 | 10 | 1016.9 |
| 20260831203331 | 72 | 285 | 0.0 | 0.0 | 0.00 | 0.00 | 0.00 | 10 | 1017.2 |
| 20260831202829 | 71 | 293 | 0.0 | 0.0 | 0.00 | 0.00 | 0.00 | 10 | 1017.2 |
| 20260831202324 | 71 | 85 | 0.0 | 1.0 | 0.00 | 0.00 | 0.00 | 10 | 1016.9 |
| 20260831201824 | 71 | 4 | 0.0 | 1.0 | 0.00 | 0.00 | 0.00 | 10 | 1017.4 |
| 20260831201323 | 71 | 332 | 0.0 | 1.0 | 0.00 | 0.00 | 0.00 | 10 | 1017.0 |
| 20260831200819 | 71 | 295 | 0.0 | 0.0 | 0.00 | 0.00 | 0.00 | 10 | 1017.0 |
| 20260831200314 | 71 | 340 | 0.0 | 0.0 | 0.00 | 0.00 | 0.00 | 10 | 1017.3 |
| 20260831195809 | 71 | 298 | 0.0 | 0.0 | 0.00 | 0.00 | 0.00 | 10 | 1017.4 |
| 20260831195306 | 71 | 289 | 0.0 | 0.0 | 0.00 | 0.00 | 0.00 | 10 | 1017.5 |
| 20260831194801 | 70 | 246 | 0.0 | 1.0 | 0.00 | 0.00 | 0.00 | 10 | 1017.4 |
| 20260831194256 | 71 | 319 | 0.0 | 0.0 | 0.00 | 0.00 | 0.00 | 10 | 1017.4 |
| 20260831193754 | 70 | 324 | 0.0 | 1.0 | 0.00 | 0.00 | 0.00 | 10 | 1017.4 |
| 20260831193250 | 70 | 299 | 0.0 | 0.0 | 0.00 | 0.00 | 0.00 | 10 | 1017.3 |
| 20260831192745 | 71 | 266 | 0.0 | 1.0 | 0.00 | 0.00 | 0.00 | 10 | 1017.5 |
| 20260831192240 | 71 | 288 | 0.0 | 1.0 | 0.00 | 0.00 | 0.00 | 10 | 1017.5 |
| 20260831191736 | 69 | 297 | 0.0 | 2.0 | 0.00 | 0.00 | 0.00 | 10 | 1017.7 |
| 20260831191232 | 70 | 290 | 0.0 | 0.0 | 0.00 | 0.00 | 0.00 | 10 | 1017.6 |
| 20260831190727 | 70 | 353 | 0.0 | 1.0 | 0.00 | 0.00 | 0.00 | 10 | 1017.7 |
| 20260831190227 | 70 | 344 | 0.0 | 1.0 | 0.00 | 0.00 | 0.00 | 10 | 1017.7 |
| 20260831185721 | 70 | 291 | 0.0 | 0.0 | 0.00 | 0.00 | 0.00 | 10 | 1017.5 |
| 20260831185217 | 69 | 34 | 0.0 | 0.0 | 0.00 | 0.00 | 0.00 | 10 | 1017.7 |
| 20260831184716 | 69 | 4 | 0.0 | 1.0 | 0.00 | 0.00 | 0.00 | 10 | 1017.7 |
| 20260831184212 | 69 | 34 | 0.0 | 1.0 | 0.00 | 0.00 | 0.00 | 10 | 1017.8 |
| 20260831183711 | 69 | 51 | 0.0 | 0.0 | 0.00 | 0.00 | 0.00 | 10 | 1017.8 |
| 20260831183206 | 68 | 12 | 0.0 | 0.0 | 0.00 | 0.00 | 0.00 | 10 | 1017.9 |
| 20260831182705 | 68 | 344 | 0.0 | 1.0 | 0.00 | 0.00 | 0.00 | 10 | 1018.3 |
| 20260831182200 | 69 | 353 | 0.0 | 2.0 | 0.00 | 0.00 | 0.00 | 10 | 1017.8 |
| 20260831181655 | 69 | 31 | 0.0 | 0.0 | 0.00 | 0.00 | 0.00 | 10 | 1017.9 |
| 20260831181149 | 68 | 332 | 0.0 | 0.0 | 0.00 | 0.00 | 0.00 | 10 | 1018.1 |
| 20260831180645 | 68 | 44 | 0.0 | 0.0 | 0.00 | 0.00 | 0.00 | 10 | 1018.1 |
| 20260831180139 | 68 | 4 | 0.0 | 0.0 | 0.00 | 0.00 | 0.00 | 10 | 1017.8 |
| 20260831175634 | 68 | 321 | 0.0 | 0.0 | 0.00 | 0.00 | 0.00 | 10 | 1018.1 |
| 20260831175131 | 68 | 356 | 0.0 | 0.0 | 0.00 | 0.00 | 0.00 | 10 | 1018.4 |
| 20260831174625 | 67 | 321 | 0.0 | 2.0 | 0.00 | 0.00 | 0.00 | 10 | 1018.1 |
| 20260831174120 | 68 | 339 | 0.0 | 0.0 | 0.00 | 0.00 | 0.00 | 10 | 1018.0 |
| 20260831173618 | 67 | 338 | 0.0 | 0.0 | 0.00 | 0.00 | 0.00 | 10 | 1018.4 |
| 20260831173115 | 68 | 328 | 0.0 | 0.0 | 0.00 | 0.00 | 0.00 | 10 | 1018.3 |
| 20260831172615 | 67 | 319 | 0.0 | 2.0 | 0.00 | 0.00 | 0.00 | 10 | 1018.1 |
| 20260831172114 | 66 | 23 | 1.0 | 1.0 | 0.00 | 0.00 | 0.00 | 10 | 1018.3 |
| 20260831171610 | 66 | 9 | 0.0 | 0.0 | 0.00 | 0.00 | 0.00 | 10 | 1018.1 |
| 20260831171108 | 67 | 13 | 0.0 | 1.0 | 0.00 | 0.00 | 0.00 | 10 | 1018.6 |
| 20260831170603 | 66 | 348 | 0.0 | 3.0 | 0.00 | 0.00 | 0.00 | 10 | 1018.0 |
| 20260831170100 | 66 | 12 | 0.0 | 2.0 | 0.00 | 0.00 | 0.00 | 10 | 1018.4 |
| 20260831165555 | 66 | 1 | 0.0 | 0.0 | 0.00 | 0.00 | 0.00 | 10 | 1018.4 |
| 20260831165052 | 66 | 10 | 0.0 | 1.0 | 0.00 | 0.00 | 0.00 | 10 | 1018.5 |
| 20260831164547 | 66 | 336 | 0.0 | 2.0 | 0.00 | 0.00 | 0.00 | 10 | 1018.0 |
| 20260831164043 | 65 | 355 | 0.0 | 2.0 | 0.00 | 0.00 | 0.00 | 10 | 1018.4 |
| 20260831163537 | 65 | 348 | 0.0 | 3.0 | 0.00 | 0.00 | 0.00 | 10 | 1018.3 |
| 20260831163033 | 65 | 7 | 0.0 | 3.0 | 0.00 | 0.00 | 0.00 | 10 | 1018.1 |
| 20260831162532 | 65 | 355 | 0.0 | 0.0 | 0.00 | 0.00 | 0.00 | 10 | 1018.1 |
| 20260831162030 | 65 | 357 | 0.0 | 0.0 | 0.00 | 0.00 | 0.00 | 10 | 1018.3 |
| 20260831161527 | 65 | 326 | 1.0 | 2.0 | 0.00 | 0.00 | 0.00 | 10 | 1018.1 |
| 20260831161023 | 64 | 359 | 1.0 | 5.0 | 0.00 | 0.00 | 0.00 | 10 | 1018.1 |
| 20260831160522 | 64 | 356 | 0.0 | 1.0 | 0.00 | 0.00 | 0.00 | 10 | 1018.0 |
| 20260831160018 | 64 | 332 | 1.0 | 3.0 | 0.00 | 0.00 | 0.00 | 10 | 1017.9 |
| 20260831155512 | 64 | 356 | 0.0 | 2.0 | 0.00 | 0.00 | 0.00 | 10 | 1017.9 |
| 20260831155007 | 64 | 331 | 1.0 | 2.0 | 0.00 | 0.00 | 0.00 | 10 | 1017.7 |
| 20260831154503 | 63 | 355 | 1.0 | 5.0 | 0.00 | 0.00 | 0.00 | 10 | 1017.7 |
| 20260831154002 | 63 | 344 | 0.0 | 1.0 | 0.00 | 0.00 | 0.00 | 10 | 1017.8 |
| 20260831153457 | 63 | 2 | 0.0 | 2.0 | 0.00 | 0.00 | 0.00 | 10 | 1018.0 |
| 20260831152954 | 63 | 338 | 0.0 | 3.0 | 0.00 | 0.00 | 0.00 | 10 | 1017.9 |
| 20260831152448 | 63 | 27 | 0.0 | 2.0 | 0.00 | 0.00 | 0.00 | 10 | 1017.9 |
| 20260831151944 | 63 | 326 | 0.0 | 1.0 | 0.00 | 0.00 | 0.00 | 10 | 1017.7 |
| 20260831151443 | 63 | 349 | 1.0 | 2.0 | 0.00 | 0.00 | 0.00 | 10 | 1017.7 |
| 20260831150938 | 63 | 334 | 2.0 | 3.0 | 0.00 | 0.00 | 0.00 | 10 | 1017.6 |
| 20260831150434 | 63 | 335 | 0.0 | 1.0 | 0.00 | 0.00 | 0.00 | 10 | 1017.8 |
| 20260831145933 | 63 | 323 | 1.0 | 2.0 | 0.00 | 0.00 | 0.00 | 10 | 1017.6 |
| 20260831145430 | 63 | 322 | 0.0 | 0.0 | 0.00 | 0.00 | 0.00 | 10 | 1017.6 |
| 20260831144925 | 63 | 7 | 0.0 | 2.0 | 0.00 | 0.00 | 0.00 | 10 | 1017.4 |
| 20260831144421 | 62 | 323 | 3.0 | 3.0 | 0.00 | 0.00 | 0.00 | 10 | 1017.4 |
| 20260831143916 | 61 | 325 | 0.0 | 0.0 | 0.00 | 0.00 | 0.00 | 10 | 1017.4 |
| 20260831143411 | 61 | 316 | 0.0 | 1.0 | 0.00 | 0.00 | 0.00 | 10 | 1017.4 |
| 20260831142907 | 61 | 329 | 0.0 | 3.0 | 0.00 | 0.00 | 0.00 | 10 | 1017.2 |
| 20260831142402 | 60 | 310 | 1.0 | 3.0 | 0.00 | 0.00 | 0.00 | 10 | 1017.3 |
| 20260831141856 | 60 | 302 | 0.0 | 1.0 | 0.00 | 0.00 | 0.00 | 10 | 1017.3 |
| 20260831141350 | 58 | 326 | 0.0 | 0.0 | 0.00 | 0.00 | 0.00 | 10 | 1017.2 |
| 20260831140845 | 58 | 295 | 0.0 | 0.0 | 0.00 | 0.00 | 0.00 | 10 | 1016.8 |
| 20260831140340 | 57 | 258 | 0.0 | 0.0 | 0.00 | 0.00 | 0.00 | 10 | 1016.8 |
| 20260831135838 | 56 | 313 | 0.0 | 0.0 | 0.00 | 0.00 | 0.00 | 10 | 1016.9 |
| 20260831135333 | 55 | 286 | 0.0 | 0.0 | 0.00 | 0.00 | 0.00 | 10 | 1016.8 |
| 20260831134829 | 55 | 302 | 0.0 | 0.0 | 0.00 | 0.00 | 0.00 | 10 | 1017.0 |
| 20260831134326 | 55 | 308 | 0.0 | 0.0 | 0.00 | 0.00 | 0.00 | 10 | 1016.9 |
| 20260831133825 | 55 | 319 | 0.0 | 0.0 | 0.00 | 0.00 | 0.00 | 10 | 1016.8 |
| 20260831133324 | 54 | 272 | 0.0 | 0.0 | 0.00 | 0.00 | 0.00 | 10 | 1016.6 |
| 20260831132819 | 53 | 294 | 0.0 | 0.0 | 0.00 | 0.00 | 0.00 | 10 | 1016.6 |
| 20260831132314 | 53 | 259 | 0.0 | 0.0 | 0.00 | 0.00 | 0.00 | 10 | 1016.7 |
| 20260831131809 | 53 | 271 | 0.0 | 0.0 | 0.00 | 0.00 | 0.00 | 10 | 1016.5 |
| 20260831131305 | 53 | 296 | 0.0 | 0.0 | 0.00 | 0.00 | 0.00 | 10 | 1016.6 |
| 20260831130759 | 52 | 296 | 0.0 | 0.0 | 0.00 | 0.00 | 0.00 | 10 | 1016.5 |
| 20260831130255 | 52 | 287 | 0.0 | 0.0 | 0.00 | 0.00 | 0.00 | 10 | 1016.3 |
| 20260831125754 | 51 | 308 | 0.0 | 0.0 | 0.00 | 0.00 | 0.00 | 10 | 1016.2 |
| 20260831125249 | 51 | 293 | 0.0 | 0.0 | 0.00 | 0.00 | 0.00 | 10 | 1016.4 |
| 20260831124744 | 50 | 285 | 0.0 | 0.0 | 0.00 | 0.00 | 0.00 | 10 | 1016.3 |
| 20260831124240 | 50 | 284 | 0.0 | 0.0 | 0.00 | 0.00 | 0.00 | 10 | 1016.3 |
| 20260831123735 | 51 | 303 | 0.0 | 0.0 | 0.00 | 0.00 | 0.00 | 10 | 1016.1 |
| 20260831123234 | 51 | 270 | 0.0 | 0.0 | 0.00 | 0.00 | 0.00 | 10 | 1016.3 |
| 20260831122733 | 51 | 298 | 0.0 | 1.0 | 0.00 | 0.00 | 0.00 | 10 | 1016.1 |
| 20260831122230 | 51 | 294 | 0.0 | 0.0 | 0.00 | 0.00 | 0.00 | 10 | 1016.1 |
| 20260831121728 | 50 | 279 | 0.0 | 0.0 | 0.00 | 0.00 | 0.00 | 10 | 1016.3 |
| 20260831121225 | 49 | 281 | 0.0 | 0.0 | 0.00 | 0.00 | 0.00 | 10 | 1015.8 |
| 20260831120721 | 48 | 302 | 0.0 | 0.0 | 0.00 | 0.00 | 0.00 | 10 | 1016.1 |
| 20260831120215 | 49 | 296 | 0.0 | 0.0 | 0.00 | 0.00 | 0.00 | 10 | 1015.9 |
| 20260831115711 | 49 | 303 | 0.0 | 0.0 | 0.00 | 0.00 | 0.00 | 10 | 1015.9 |
| 20260831115207 | 49 | 288 | 0.0 | 0.0 | 0.00 | 0.00 | 0.00 | 10 | 1015.7 |
| 20260831114706 | 49 | 296 | 0.0 | 0.0 | 0.00 | 0.00 | 0.00 | 10 | 1015.9 |
| 20260831114205 | 49 | 297 | 0.0 | 1.0 | 0.00 | 0.00 | 0.00 | 10 | 1015.9 |
| 20260831113701 | 49 | 297 | 1.0 | 2.0 | 0.00 | 0.00 | 0.00 | 10 | 1015.9 |
| 20260831113155 | 49 | 286 | 0.0 | 0.0 | 0.00 | 0.00 | 0.00 | 10 | 1015.9 |
| 20260831112654 | 49 | 195 | 0.0 | 0.0 | 0.00 | 0.00 | 0.00 | 10 | 1015.7 |
| 20260831112150 | 49 | 290 | 0.0 | 0.0 | 0.00 | 0.00 | 0.00 | 10 | 1015.9 |
| 20260831111645 | 48 | 277 | 0.0 | 0.0 | 0.00 | 0.00 | 0.00 | 10 | 1015.8 |
| 20260831111141 | 49 | 283 | 0.0 | 1.0 | 0.00 | 0.00 | 0.00 | 10 | 1015.7 |
| 20260831110637 | 48 | 287 | 0.0 | 0.0 | 0.00 | 0.00 | 0.00 | 10 | 1015.9 |
| 20260831110132 | 48 | 258 | 0.0 | 1.0 | 0.00 | 0.00 | 0.00 | 10 | 1015.6 |
| 20260831105631 | 48 | 285 | 0.0 | 2.0 | 0.00 | 0.00 | 0.00 | 10 | 1015.9 |
| 20260831105126 | 48 | 295 | 1.0 | 2.0 | 0.00 | 0.00 | 0.00 | 10 | 1015.6 |
| 20260831104622 | 48 | 316 | 1.0 | 2.0 | 0.00 | 0.00 | 0.00 | 10 | 1015.3 |
| 20260831104118 | 49 | 325 | 1.0 | 2.0 | 0.00 | 0.00 | 0.00 | 10 | 1015.4 |
| 20260831103613 | 49 | 306 | 0.0 | 0.0 | 0.00 | 0.00 | 0.00 | 10 | 1015.2 |
| 20260831103108 | 49 | 304 | 0.0 | 0.0 | 0.00 | 0.00 | 0.00 | 10 | 1015.4 |
| 20260831102603 | 49 | 321 | 2.0 | 3.0 | 0.00 | 0.00 | 0.00 | 10 | 1015.2 |
| 20260831102058 | 49 | 306 | 2.0 | 3.0 | 0.00 | 0.00 | 0.00 | 10 | 1015.1 |
| 20260831101557 | 49 | 310 | 0.0 | 3.0 | 0.00 | 0.00 | 0.00 | 10 | 1015.1 |
| 20260831101054 | 49 | 312 | 0.0 | 0.0 | 0.00 | 0.00 | 0.00 | 10 | 1015.0 |
| 20260831100549 | 50 | 299 | 0.0 | 0.0 | 0.00 | 0.00 | 0.00 | 10 | 1015.0 |
| 20260831100045 | 50 | 290 | 0.0 | 1.0 | 0.00 | 0.00 | 0.00 | 10 | 1014.8 |
| 20260831095543 | 50 | 311 | 0.0 | 1.0 | 0.00 | 0.00 | 0.00 | 10 | 1014.8 |
| 20260831095038 | 50 | 282 | 0.0 | 1.0 | 0.00 | 0.00 | 0.00 | 10 | 1014.8 |
| 20260831094534 | 50 | 294 | 0.0 | 2.0 | 0.00 | 0.00 | 0.00 | 10 | 1015.0 |
| 20260831094030 | 50 | 298 | 0.0 | 2.0 | 0.00 | 0.00 | 0.00 | 10 | 1014.7 |
| 20260831093525 | 50 | 301 | 0.0 | 1.0 | 0.00 | 0.00 | 0.00 | 10 | 1015.2 |
| 20260831093021 | 50 | 278 | 0.0 | 1.0 | 0.00 | 0.00 | 0.00 | 10 | 1015.0 |
| 20260831092517 | 50 | 279 | 0.0 | 0.0 | 0.00 | 0.00 | 0.00 | 10 | 1015.1 |
| 20260831092013 | 50 | 292 | 0.0 | 2.0 | 0.00 | 0.00 | 0.00 | 10 | 1014.6 |
| 20260831091507 | 50 | 296 | 0.0 | 0.0 | 0.00 | 0.00 | 0.00 | 10 | 1014.8 |
| 20260831091003 | 50 | 291 | 0.0 | 2.0 | 0.00 | 0.00 | 0.00 | 10 | 1014.5 |
| 20260831090458 | 50 | 307 | 1.0 | 2.0 | 0.00 | 0.00 | 0.00 | 10 | 1014.6 |
| 20260831085954 | 50 | 275 | 0.0 | 5.0 | 0.00 | 0.00 | 0.00 | 10 | 1015.0 |
| 20260831085449 | 50 | 279 | 0.0 | 0.0 | 0.00 | 0.00 | 0.00 | 10 | 1014.4 |
| 20260831084949 | 50 | 274 | 0.0 | 1.0 | 0.00 | 0.00 | 0.00 | 10 | 1014.6 |
| 20260831084445 | 49 | 288 | 0.0 | 0.0 | 0.00 | 0.00 | 0.00 | 10 | 1014.7 |
| 20260831083942 | 49 | 302 | 0.0 | 0.0 | 0.00 | 0.00 | 0.00 | 10 | 1014.6 |
| 20260831083436 | 49 | 284 | 0.0 | 0.0 | 0.00 | 0.00 | 0.00 | 10 | 1014.6 |
| 20260831082935 | 49 | 281 | 0.0 | 1.0 | 0.00 | 0.00 | 0.00 | 10 | 1014.5 |
| 20260831082429 | 49 | 285 | 1.0 | 3.0 | 0.00 | 0.00 | 0.00 | 10 | 1014.4 |
| 20260831081925 | 49 | 251 | 0.0 | 2.0 | 0.00 | 0.00 | 0.00 | 10 | 1014.3 |
| 20260831081421 | 49 | 219 | 0.0 | 0.0 | 0.00 | 0.00 | 0.00 | 10 | 1014.3 |
| 20260831080917 | 49 | 230 | 0.0 | 0.0 | 0.00 | 0.00 | 0.00 | 10 | 1014.3 |
| 20260831080411 | 50 | 227 | 0.0 | 0.0 | 0.00 | 0.00 | 0.00 | 10 | 1014.4 |
| 20260831075907 | 50 | 206 | 0.0 | 0.0 | 0.00 | 0.00 | 0.00 | 10 | 1014.4 |
| 20260831075402 | 49 | 266 | 0.0 | 0.0 | 0.00 | 0.00 | 0.00 | 10 | 1014.2 |
| 20260831074857 | 49 | 295 | 0.0 | 0.0 | 0.00 | 0.00 | 0.00 | 10 | 1014.0 |
| 20260831074356 | 49 | 307 | 0.0 | 1.0 | 0.00 | 0.00 | 0.00 | 10 | 1013.9 |
| 20260831073851 | 50 | 322 | 0.0 | 1.0 | 0.00 | 0.00 | 0.00 | 10 | 1013.9 |
| 20260831073351 | 50 | 312 | 0.0 | 1.0 | 0.00 | 0.00 | 0.00 | 10 | 1013.9 |
| 20260831072846 | 50 | 315 | 0.0 | 2.0 | 0.00 | 0.00 | 0.00 | 10 | 1013.9 |
| 20260831072341 | 49 | 307 | 0.0 | 1.0 | 0.00 | 0.00 | 0.00 | 10 | 1014.0 |
| 20260831071838 | 50 | 282 | 0.0 | 1.0 | 0.00 | 0.00 | 0.00 | 10 | 1014.0 |
| 20260831071336 | 50 | 308 | 0.0 | 1.0 | 0.00 | 0.00 | 0.00 | 10 | 1014.2 |
| 20260831070832 | 50 | 291 | 0.0 | 1.0 | 0.00 | 0.00 | 0.00 | 10 | 1014.0 |
| 20260831070330 | 51 | 258 | 0.0 | 0.0 | 0.00 | 0.00 | 0.00 | 10 | 1013.6 |
| 20260831065830 | 51 | 305 | 0.0 | 2.0 | 0.00 | 0.00 | 0.00 | 10 | 1014.2 |
| 20260831065328 | 51 | 313 | 0.0 | 2.0 | 0.00 | 0.00 | 0.00 | 10 | 1014.1 |
| 20260831064823 | 51 | 307 | 0.0 | 1.0 | 0.00 | 0.00 | 0.00 | 10 | 1014.2 |
| 20260831064318 | 52 | 302 | 0.0 | 0.0 | 0.00 | 0.00 | 0.00 | 10 | 1014.1 |
| 20260831063814 | 51 | 306 | 0.0 | 1.0 | 0.00 | 0.00 | 0.00 | 10 | 1013.9 |
| 20260831063309 | 51 | 287 | 1.0 | 2.0 | 0.00 | 0.00 | 0.00 | 10 | 1014.0 |
| 20260831062809 | 51 | 306 | 0.0 | 0.0 | 0.00 | 0.00 | 0.00 | 10 | 1014.1 |
| 20260831062306 | 51 | 302 | 0.0 | 1.0 | 0.00 | 0.00 | 0.00 | 10 | 1014.3 |
| 20260831061802 | 51 | 307 | 0.0 | 1.0 | 0.00 | 0.00 | 0.00 | 10 | 1014.1 |
| 20260831061257 | 51 | 302 | 0.0 | 1.0 | 0.00 | 0.00 | 0.00 | 10 | 1014.4 |
| 20260831060754 | 51 | 315 | 0.0 | 0.0 | 0.00 | 0.00 | 0.00 | 10 | 1014.3 |
| 20260831060253 | 51 | 303 | 0.0 | 1.0 | 0.00 | 0.00 | 0.00 | 10 | 1014.1 |
| 20260831055753 | 52 | 291 | 0.0 | 2.0 | 0.00 | 0.01 | 0.01 | 10 | 1014.1 |
| 20260831055248 | 52 | 302 | 0.0 | 5.0 | 0.00 | 0.01 | 0.01 | 10 | 1014.1 |
| 20260831054743 | 52 | 307 | 0.0 | 2.0 | 0.00 | 0.01 | 0.01 | 10 | 1014.0 |
| 20260831054238 | 52 | 302 | 1.0 | 2.0 | 0.00 | 0.01 | 0.01 | 10 | 1014.0 |
| 20260831053736 | 53 | 291 | 1.0 | 3.0 | 0.00 | 0.01 | 0.01 | 10 | 1014.1 |
| 20260831053235 | 53 | 286 | 0.0 | 1.0 | 0.00 | 0.01 | 0.01 | 10 | 1013.9 |
| 20260831052729 | 53 | 302 | 0.0 | 0.0 | 0.00 | 0.01 | 0.01 | 10 | 1014.0 |
| 20260831052223 | 53 | 297 | 0.0 | 0.0 | 0.00 | 0.01 | 0.01 | 10 | 1013.7 |
| 20260831051721 | 53 | 289 | 0.0 | 1.0 | 0.00 | 0.01 | 0.01 | 10 | 1013.5 |
| 20260831051220 | 53 | 285 | 0.0 | 0.0 | 0.00 | 0.01 | 0.01 | 10 | 1014.0 |
| 20260831050715 | 53 | 286 | 1.0 | 1.0 | 0.00 | 0.01 | 0.01 | 10 | 1014.0 |
| 20260831050214 | 53 | 292 | 0.0 | 1.0 | 0.00 | 0.01 | 0.01 | 10 | 1013.6 |
| 20260831045709 | 54 | 259 | 1.0 | 2.0 | 0.00 | 0.01 | 0.01 | 10 | 1013.7 |
| 20260831045204 | 54 | 300 | 0.0 | 1.0 | 0.00 | 0.01 | 0.01 | 10 | 1013.7 |
| 20260831044658 | 54 | 286 | 2.0 | 2.0 | 0.00 | 0.01 | 0.01 | 10 | 1013.7 |
| 20260831044153 | 54 | 283 | 1.0 | 2.0 | 0.00 | 0.01 | 0.01 | 10 | 1013.4 |
| 20260831043649 | 54 | 297 | 1.0 | 3.0 | 0.00 | 0.01 | 0.01 | 10 | 1013.5 |
| 20260831043144 | 54 | 294 | 0.0 | 2.0 | 0.00 | 0.01 | 0.01 | 10 | 1013.6 |
| 20260831042643 | 54 | 302 | 0.0 | 3.0 | 0.00 | 0.01 | 0.01 | 10 | 1013.6 |
| 20260831042138 | 54 | 302 | 0.0 | 2.0 | 0.00 | 0.01 | 0.01 | 10 | 1013.6 |
| 20260831041632 | 54 | 282 | 0.0 | 2.0 | 0.00 | 0.01 | 0.01 | 10 | 1013.6 |
| 20260831041127 | 55 | 287 | 0.0 | 1.0 | 0.00 | 0.01 | 0.01 | 10 | 1013.7 |